QPF
0.03 0.03 0.06 0.07 0.08 0.09 0.09 0.09 0.07 0.07 0.11 0.21 0.27 0.24 0.26 0.27 0.25 0.22 0.19 0.14 0.11 0.11 0.12 0.12 0.10 0.09 0.10 0.11 0.11 0.09 0.08 0.08 0.05 0.04 0.05 0.05 0.05 0.07 0.08 0.08 0.08 0.06 0.06
0.02 0.03 0.06 0.07 0.11 0.15 0.12 0.09 0.06 0.08 0.13 0.21 0.26 0.33 0.23 0.19 0.17 0.18 0.18 0.14 0.14 0.15 0.14 0.13 0.11 0.11 0.11 0.11 0.09 0.05 0.06 0.05 0.04 0.05 0.06 0.05 0.06 0.06 0.06 0.07 0.08 0.05 0.06
0.02 0.03 0.05 0.09 0.16 0.19 0.15 0.10 0.07 0.07 0.09 0.16 0.23 0.35 0.25 0.18 0.16 0.15 0.14 0.14 0.16 0.16 0.15 0.13 0.11 0.10 0.09 0.09 0.07 0.05 0.05 0.04 0.05 0.07 0.07 0.05 0.04 0.04 0.04 0.04 0.04 0.03 0.05
0.02 0.03 0.04 0.09 0.17 0.22 0.19 0.11 0.08 0.07 0.10 0.13 0.16 0.23 0.23 0.20 0.18 0.17 0.16 0.16 0.17 0.16 0.15 0.13 0.10 0.09 0.10 0.09 0.07 0.06 0.05 0.05 0.07 0.09 0.10 0.08 0.03 0.02 0.02 0.02 0.02 0.02 0.03
0.01 0.01 0.03 0.07 0.14 0.21 0.21 0.14 0.09 0.08 0.09 0.11 0.12 0.15 0.19 0.20 0.24 0.26 0.22 0.19 0.18 0.16 0.14 0.12 0.11 0.12 0.10 0.07 0.06 0.05 0.05 0.06 0.10 0.10 0.07 0.07 0.03 0.02 0.01 0.01 0.01 0.01 0.01
0.00 0.00 0.01 0.04 0.07 0.12 0.17 0.15 0.11 0.09 0.09 0.09 0.10 0.14 0.18 0.19 0.25 0.30 0.24 0.19 0.17 0.17 0.16 0.14 0.13 0.11 0.08 0.06 0.05 0.05 0.06 0.06 0.08 0.04 0.04 0.04 0.02 0.02 0.02 0.02 0.01 0.01 0.01
0.00 0.00 0.00 0.01 0.03 0.08 0.13 0.13 0.13 0.11 0.09 0.10 0.12 0.17 0.20 0.22 0.24 0.26 0.23 0.21 0.18 0.18 0.19 0.17 0.12 0.08 0.06 0.05 0.04 0.03 0.04 0.06 0.06 0.03 0.04 0.05 0.03 0.01 0.02 0.03 0.02 0.01 0.01
0.00 0.00 0.00 0.00 0.01 0.04 0.09 0.12 0.11 0.11 0.10 0.10 0.10 0.12 0.14 0.15 0.16 0.16 0.17 0.18 0.19 0.19 0.17 0.14 0.12 0.07 0.05 0.04 0.03 0.02 0.03 0.04 0.02 0.02 0.04 0.04 0.02 0.01 0.01 0.02 0.02 0.01 0.00
0.00 0.00 0.00 0.00 0.01 0.02 0.04 0.07 0.08 0.08 0.08 0.07 0.07 0.08 0.09 0.09 0.09 0.09 0.12 0.14 0.15 0.14 0.13 0.11 0.08 0.06 0.06 0.05 0.03 0.02 0.03 0.03 0.01 0.02 0.03 0.02 0.01 0.00 0.01 0.01 0.01 0.01 0.00
0.01 0.02 0.01 0.01 0.01 0.01 0.01 0.03 0.04 0.05 0.07 0.06 0.06 0.06 0.06 0.06 0.05 0.06 0.07 0.07 0.08 0.08 0.07 0.05 0.05 0.06 0.05 0.05 0.04 0.03 0.03 0.02 0.01 0.02 0.02 0.01 0.01 0.01 0.01 0.01 0.01 0.01 0.01
0.00 0.02 0.03 0.01 0.01 0.01 0.00 0.01 0.01 0.03 0.05 0.08 0.07 0.07 0.07 0.08 0.05 0.05 0.03 0.03 0.03 0.03 0.03 0.04 0.04 0.04 0.04 0.03 0.04 0.04 0.03 0.01 0.01 0.02 0.01 0.00 0.01 0.01 0.02 0.01 0.01 0.01 0.01
0.01 0.01 0.01 0.02 0.01 0.02 0.01 0.02 0.03 0.02 0.04 0.08 0.09 0.08 0.08 0.09 0.07 0.04 0.03 0.02 0.02 0.02 0.02 0.02 0.02 0.03 0.03 0.03 0.04 0.06 0.03 0.01 0.01 0.02 0.01 0.01 0.01 0.01 0.01 0.01 0.02 0.01 0.01
0.00 0.00 0.00 0.00 0.00 0.01 0.01 0.02 0.03 0.03 0.05 0.04 0.05 0.05 0.05 0.05 0.05 0.04 0.04 0.03 0.03 0.03 0.03 0.02 0.03 0.07 0.05 0.03 0.03 0.02 0.01 0.01 0.01 0.01 0.01 0.01 0.00 0.00 0.01 0.01 0.01 0.01 0.01
0.00 0.01 0.00 0.00 0.01 0.01 0.01 0.02 0.02 0.03 0.03 0.03 0.04 0.04 0.03 0.05 0.06 0.07 0.05 0.05 0.05 0.05 0.05 0.05 0.04 0.03 0.03 0.01 0.01 0.01 0.00 0.00 0.01 0.01 0.01 0.00 0.00 0.01 0.01 0.01 0.01 0.01 0.01
0.00 0.01 0.00 0.01 0.01 0.01 0.02 0.04 0.02 0.02 0.03 0.03 0.03 0.03 0.03 0.05 0.06 0.07 0.06 0.06 0.06 0.05 0.04 0.04 0.03 0.02 0.02 0.01 0.01 0.01 0.02 0.01 0.01 0.01 0.01 0.01 0.00 0.01 0.01 0.02 0.02 0.01 0.02
0.00 0.00 0.01 0.02 0.01 0.02 0.02 0.02 0.03 0.03 0.06 0.04 0.04 0.03 0.03 0.05 0.08 0.08 0.07 0.06 0.05 0.04 0.03 0.03 0.02 0.03 0.03 0.02 0.02 0.02 0.02 0.02 0.02 0.01 0.02 0.03 0.01 0.01 0.01 0.02 0.02 0.02 0.02
0.00 0.00 0.01 0.01 0.01 0.02 0.03 0.03 0.04 0.03 0.03 0.04 0.04 0.05 0.03 0.04 0.08 0.08 0.08 0.07 0.06 0.04 0.03 0.03 0.03 0.03 0.04 0.05 0.04 0.03 0.03 0.02 0.01 0.01 0.03 0.06 0.07 0.06 0.05 0.04 0.04 0.04 0.03
0.00 0.01 0.01 0.01 0.01 0.02 0.03 0.05 0.05 0.04 0.04 0.03 0.03 0.04 0.03 0.06 0.06 0.07 0.08 0.07 0.06 0.05 0.04 0.05 0.05 0.05 0.07 0.07 0.07 0.06 0.04 0.03 0.03 0.03 0.05 0.08 0.11 0.12 0.10 0.06 0.06 0.05 0.06
0.01 0.01 0.01 0.01 0.03 0.04 0.03 0.05 0.05 0.06 0.05 0.04 0.03 0.04 0.04 0.03 0.03 0.06 0.09 0.08 0.07 0.07 0.05 0.04 0.07 0.09 0.10 0.08 0.05 0.06 0.05 0.05 0.06 0.06 0.07 0.09 0.11 0.13 0.12 0.11 0.10 0.07 0.08
0.01 0.01 0.01 0.02 0.03 0.04 0.06 0.08 0.09 0.06 0.05 0.04 0.05 0.05 0.04 0.05 0.03 0.05 0.07 0.07 0.07 0.09 0.08 0.08 0.09 0.12 0.11 0.09 0.05 0.06 0.06 0.06 0.07 0.09 0.10 0.08 0.08 0.10 0.12 0.13 0.16 0.10 0.07
0.02 0.01 0.01 0.02 0.04 0.05 0.08 0.10 0.09 0.08 0.06 0.04 0.04 0.04 0.04 0.04 0.03 0.08 0.07 0.08 0.06 0.08 0.10 0.10 0.14 0.16 0.13 0.09 0.11 0.12 0.09 0.06 0.08 0.09 0.09 0.08 0.09 0.10 0.09 0.09 0.10 0.11 0.10
0.01 0.01 0.01 0.01 0.03 0.04 0.05 0.07 0.08 0.08 0.07 0.06 0.03 0.03 0.03 0.03 0.05 0.07 0.10 0.10 0.09 0.11 0.11 0.11 0.14 0.13 0.12 0.10 0.13 0.15 0.15 0.15 0.14 0.09 0.08 0.09 0.10 0.09 0.08 0.07 0.09 0.11 0.11
0.01 0.01 0.01 0.01 0.03 0.05 0.06 0.07 0.06 0.08 0.08 0.06 0.06 0.05 0.03 0.03 0.04 0.07 0.10 0.09 0.09 0.09 0.11 0.11 0.10 0.11 0.12 0.13 0.13 0.15 0.17 0.18 0.18 0.14 0.12 0.12 0.11 0.11 0.09 0.08 0.09 0.11 0.12
0.01 0.00 0.01 0.01 0.02 0.04 0.04 0.05 0.04 0.06 0.08 0.08 0.07 0.07 0.05 0.03 0.04 0.06 0.08 0.08 0.08 0.09 0.11 0.08 0.08 0.10 0.14 0.14 0.15 0.14 0.13 0.16 0.16 0.16 0.16 0.14 0.14 0.14 0.13 0.11 0.12 0.13 0.13
0.00 0.00 0.00 0.01 0.02 0.02 0.03 0.03 0.05 0.06 0.07 0.07 0.05 0.07 0.08 0.07 0.05 0.05 0.08 0.09 0.09 0.11 0.12 0.08 0.08 0.08 0.10 0.10 0.12 0.12 0.13 0.14 0.14 0.14 0.16 0.16 0.14 0.12 0.11 0.11 0.11 0.12 0.12
0.00 0.00 0.00 0.00 0.01 0.01 0.01 0.02 0.04 0.04 0.06 0.07 0.05 0.06 0.07 0.08 0.08 0.07 0.08 0.09 0.10 0.12 0.13 0.11 0.09 0.08 0.09 0.09 0.09 0.09 0.12 0.13 0.14 0.13 0.15 0.17 0.15 0.13 0.11 0.10 0.10 0.10 0.10
MSLP
1011.07 1010.97 1011.00 1011.17 1011.40 1011.63 1011.80 1011.87 1011.84 1011.72 1011.57 1011.44 1011.37 1011.37 1011.44 1011.54 1011.63 1011.66 1011.62 1011.51 1011.37 1011.23 1011.14 1011.12 1011.20 1011.35 1011.56 1011.78 1012.00 1012.20 1012.38 1012.54 1012.73 1012.96 1013.24 1013.56 1013.93 1014.31 1014.69 1015.05 1015.39 1015.71 1016.01
1011.27 1011.27 1011.40 1011.61 1011.86 1012.07 1012.19 1012.19 1012.09 1011.92 1011.75 1011.63 1011.61 1011.68 1011.83 1012.01 1012.17 1012.25 1012.24 1012.15 1012.02 1011.88 1011.79 1011.77 1011.83 1011.96 1012.14 1012.33 1012.51 1012.67 1012.83 1013.00 1013.21 1013.47 1013.78 1014.14 1014.52 1014.89 1015.24 1015.54 1015.81 1016.06 1016.29
1011.37 1011.49 1011.70 1011.99 1012.27 1012.48 1012.58 1012.55 1012.41 1012.22 1012.03 1011.93 1011.93 1012.04 1012.24 1012.46 1012.64 1012.76 1012.77 1012.70 1012.58 1012.47 1012.39 1012.37 1012.43 1012.54 1012.68 1012.82 1012.96 1013.08 1013.22 1013.40 1013.63 1013.94 1014.31 1014.72 1015.12 1015.49 1015.81 1016.06 1016.26 1016.44 1016.62
1011.36 1011.58 1011.89 1012.25 1012.59 1012.84 1012.96 1012.93 1012.80 1012.61 1012.43 1012.34 1012.35 1012.47 1012.66 1012.88 1013.07 1013.18 1013.20 1013.15 1013.07 1012.99 1012.94 1012.95 1013.02 1013.11 1013.20 1013.29 1013.37 1013.45 1013.56 1013.74 1014.01 1014.37 1014.79 1015.25 1015.69 1016.07 1016.36 1016.57 1016.72 1016.85 1016.99
1011.26 1011.56 1011.96 1012.40 1012.81 1013.12 1013.29 1013.32 1013.22 1013.06 1012.91 1012.83 1012.84 1012.95 1013.11 1013.30 1013.45 1013.54 1013.56 1013.54 1013.49 1013.46 1013.47 1013.52 1013.59 1013.67 1013.72 1013.75 1013.76 1013.78 1013.86 1014.03 1014.32 1014.72 1015.20 1015.70 1016.18 1016.57 1016.85 1017.03 1017.15 1017.24 1017.36
1011.13 1011.48 1011.94 1012.46 1012.94 1013.32 1013.57 1013.66 1013.63 1013.53 1013.42 1013.36 1013.37 1013.45 1013.57 1013.70 1013.81 1013.87 1013.89 1013.88 1013.89 1013.92 1013.98 1014.07 1014.17 1014.23 1014.24 1014.20 1014.13 1014.09 1014.12 1014.27 1014.56 1014.99 1015.51 1016.06 1016.56 1016.97 1017.25 1017.41 1017.50 1017.58 1017.70
1011.02 1011.40 1011.90 1012.46 1012.99 1013.44 1013.76 1013.93 1013.98 1013.95 1013.89 1013.86 1013.88 1013.94 1014.02 1014.10 1014.16 1014.19 1014.20 1014.22 1014.27 1014.35 1014.48 1014.61 1014.72 1014.76 1014.72 1014.62 1014.48 1014.36 1014.34 1014.46 1014.75 1015.20 1015.75 1016.32 1016.85 1017.26 1017.55 1017.70 1017.78 1017.85 1017.96
1011.00 1011.38 1011.88 1012.45 1013.01 1013.49 1013.86 1014.09 1014.20 1014.24 1014.25 1014.26 1014.30 1014.35 1014.42 1014.47 1014.50 1014.51 1014.52 1014.55 1014.64 1014.77 1014.94 1015.10 1015.21 1015.24 1015.16 1014.99 1014.78 1014.60 1014.53 1014.62 1014.91 1015.36 1015.93 1016.53 1017.07 1017.49 1017.78 1017.93 1018.00 1018.06 1018.17
1011.10 1011.45 1011.93 1012.48 1013.02 1013.49 1013.86 1014.12 1014.28 1014.37 1014.44 1014.50 1014.58 1014.66 1014.73 1014.78 1014.80 1014.80 1014.82 1014.87 1014.98 1015.14 1015.33 1015.50 1015.61 1015.61 1015.50 1015.28 1015.02 1014.80 1014.70 1014.77 1015.05 1015.51 1016.09 1016.70 1017.26 1017.69 1017.98 1018.12 1018.18 1018.23 1018.32
1011.32 1011.63 1012.06 1012.56 1013.04 1013.47 1013.81 1014.05 1014.22 1014.34 1014.45 1014.57 1014.70 1014.82 1014.92 1015.00 1015.03 1015.05 1015.08 1015.14 1015.26 1015.43 1015.62 1015.79 1015.88 1015.86 1015.72 1015.48 1015.20 1014.96 1014.85 1014.92 1015.20 1015.68 1016.27 1016.90 1017.46 1017.91 1018.19 1018.33 1018.38 1018.41 1018.48
1011.61 1011.89 1012.27 1012.69 1013.10 1013.45 1013.72 1013.91 1014.06 1014.19 1014.32 1014.48 1014.66 1014.84 1014.99 1015.11 1015.18 1015.22 1015.26 1015.33 1015.45 1015.61 1015.78 1015.93 1016.01 1015.97 1015.82 1015.57 1015.30 1015.07 1014.98 1015.07 1015.37 1015.86 1016.47 1017.11 1017.69 1018.14 1018.44 1018.58 1018.62 1018.63 1018.68
1011.92 1012.19 1012.52 1012.87 1013.19 1013.45 1013.63 1013.76 1013.86 1013.97 1014.11 1014.30 1014.51 1014.74 1014.95 1015.11 1015.22 1015.29 1015.35 1015.42 1015.52 1015.66 1015.81 1015.93 1015.99 1015.95 1015.80 1015.58 1015.34 1015.15 1015.09 1015.21 1015.54 1016.04 1016.67 1017.32 1017.91 1018.38 1018.69 1018.85 1018.90 1018.90 1018.92
1012.21 1012.47 1012.78 1013.07 1013.32 1013.49 1013.59 1013.65 1013.69 1013.76 1013.89 1014.08 1014.32 1014.58 1014.82 1015.02 1015.17 1015.26 1015.33 1015.39 1015.48 1015.60 1015.72 1015.82 1015.87 1015.83 1015.71 1015.53 1015.33 1015.19 1015.18 1015.33 1015.67 1016.19 1016.81 1017.46 1018.06 1018.55 1018.89 1019.08 1019.15 1019.17 1019.19
1012.44 1012.71 1013.01 1013.27 1013.46 1013.58 1013.62 1013.62 1013.61 1013.64 1013.74 1013.91 1014.15 1014.41 1014.66 1014.87 1015.03 1015.14 1015.21 1015.28 1015.35 1015.45 1015.55 1015.64 1015.69 1015.68 1015.59 1015.45 1015.31 1015.22 1015.25 1015.42 1015.76 1016.26 1016.86 1017.50 1018.09 1018.60 1018.97 1019.20 1019.33 1019.39 1019.42
1012.60 1012.89 1013.18 1013.43 1013.61 1013.71 1013.72 1013.69 1013.65 1013.64 1013.70 1013.84 1014.04 1014.27 1014.50 1014.70 1014.86 1014.96 1015.03 1015.09 1015.16 1015.25 1015.35 1015.45 1015.51 1015.53 1015.49 1015.40 1015.31 1015.26 1015.31 1015.47 1015.79 1016.24 1016.79 1017.38 1017.95 1018.46 1018.86 1019.16 1019.35 1019.47 1019.56
1012.69 1012.99 1013.29 1013.55 1013.74 1013.85 1013.87 1013.84 1013.80 1013.78 1013.80 1013.89 1014.03 1014.21 1014.38 1014.54 1014.66 1014.75 1014.81 1014.88 1014.96 1015.06 1015.17 1015.29 1015.38 1015.44 1015.45 1015.41 1015.36 1015.34 1015.37 1015.51 1015.76 1016.14 1016.60 1017.11 1017.64 1018.13 1018.55 1018.90 1019.17 1019.38 1019.54
1012.73 1013.02 1013.33 1013.61 1013.83 1013.97 1014.04 1014.05 1014.02 1014.00 1014.00 1014.03 1014.11 1014.20 1014.30 1014.39 1014.47 1014.53 1014.59 1014.66 1014.76 1014.89 1015.04 1015.19 1015.33 1015.43 1015.48 1015.49 1015.47 1015.45 1015.47 1015.55 1015.72 1015.99 1016.34 1016.76 1017.21 1017.66 1018.08 1018.47 1018.81 1019.09 1019.33
1012.74 1013.02 1013.32 1013.61 1013.86 1014.05 1014.18 1014.24 1014.26 1014.25 1014.23 1014.22 1014.22 1014.23 1014.25 1014.27 1014.30 1014.33 1014.39 1014.47 1014.60 1014.77 1014.95 1015.15 1015.34 1015.49 1015.58 1015.63 1015.63 1015.62 1015.61 1015.63 1015.72 1015.87 1016.10 1016.40 1016.75 1017.14 1017.54 1017.94 1018.32 1018.67 1018.97
1012.75 1012.98 1013.26 1013.55 1013.83 1014.07 1014.25 1014.38 1014.45 1014.47 1014.45 1014.40 1014.34 1014.27 1014.21 1014.16 1014.14 1014.15 1014.21 1014.31 1014.47 1014.68 1014.91 1015.15 1015.38 1015.57 1015.71 1015.79 1015.82 1015.82 1015.79 1015.77 1015.78 1015.84 1015.96 1016.15 1016.40 1016.70 1017.05 1017.43 1017.82 1018.19 1018.54
1012.74 1012.94 1013.19 1013.46 1013.74 1014.01 1014.25 1014.43 1014.55 1014.60 1014.59 1014.52 1014.42 1014.29 1014.17 1014.07 1014.01 1014.00 1014.06 1014.19 1014.38 1014.61 1014.88 1015.15 1015.41 1015.63 1015.81 1015.92 1015.99 1016.00 1015.99 1015.96 1015.93 1015.93 1015.97 1016.06 1016.22 1016.44 1016.72 1017.05 1017.41 1017.78 1018.13
1012.73 1012.90 1013.11 1013.36 1013.63 1013.90 1014.16 1014.38 1014.54 1014.63 1014.63 1014.56 1014.44 1014.28 1014.13 1013.99 1013.91 1013.89 1013.96 1014.10 1014.30 1014.55 1014.83 1015.11 1015.38 1015.62 1015.82 1015.97 1016.07 1016.13 1016.15 1016.15 1016.14 1016.12 1016.13 1016.17 1016.26 1016.41 1016.62 1016.88 1017.19 1017.51 1017.83
1012.70 1012.87 1013.06 1013.27 1013.51 1013.78 1014.04 1014.27 1014.46 1014.57 1014.59 1014.54 1014.42 1014.26 1014.09 1013.94 1013.86 1013.84 1013.90 1014.05 1014.25 1014.49 1014.75 1015.02 1015.27 1015.50 1015.70 1015.87 1016.02 1016.13 1016.22 1016.29 1016.33 1016.36 1016.38 1016.42 1016.48 1016.58 1016.73 1016.93 1017.17 1017.44 1017.70
1012.65 1012.85 1013.03 1013.22 1013.43 1013.67 1013.91 1014.15 1014.34 1014.47 1014.52 1014.48 1014.38 1014.24 1014.08 1013.95 1013.86 1013.85 1013.92 1014.05 1014.23 1014.44 1014.66 1014.88 1015.08 1015.27 1015.45 1015.63 1015.80 1015.97 1016.14 1016.29 1016.42 1016.54 1016.63 1016.70 1016.78 1016.88 1017.00 1017.15 1017.34 1017.54 1017.74
1012.56 1012.82 1013.03 1013.22 1013.41 1013.61 1013.83 1014.05 1014.24 1014.38 1014.45 1014.44 1014.37 1014.26 1014.13 1014.02 1013.95 1013.94 1014.00 1014.11 1014.25 1014.41 1014.56 1014.70 1014.84 1014.96 1015.10 1015.25 1015.43 1015.64 1015.88 1016.11 1016.35 1016.56 1016.74 1016.90 1017.04 1017.17 1017.30 1017.44 1017.59 1017.75 1017.90
1012.43 1012.78 1013.04 1013.25 1013.43 1013.61 1013.81 1014.00 1014.19 1014.34 1014.43 1014.45 1014.42 1014.34 1014.24 1014.16 1014.11 1014.10 1014.15 1014.23 1014.32 1014.42 1014.50 1014.55 1014.60 1014.64 1014.70 1014.81 1014.97 1015.19 1015.45 1015.75 1016.07 1016.38 1016.66 1016.91 1017.13 1017.32 1017.50 1017.67 1017.83 1017.99 1018.13
1012.23 1012.69 1013.03 1013.28 1013.47 1013.65 1013.83 1014.02 1014.20 1014.35 1014.46 1014.51 1014.51 1014.47 1014.40 1014.34 1014.31 1014.31 1014.34 1014.39 1014.44 1014.48 1014.48 1014.46 1014.42 1014.37 1014.35 1014.39 1014.49 1014.68 1014.94 1015.26 1015.61 1015.98 1016.34 1016.68 1016.99 1017.27 1017.53 1017.76 1017.98 1018.17 1018.34
Thickness
5778 5775 5772 5773 5773 5774 5775 5776 5776 5776 5776 5776 5776 5775 5775 5775 5775 5775 5775 5774 5774 5773 5772 5771 5770 5769 5768 5768 5767 5766 5765 5763 5762 5761 5759 5757 5756 5754 5753 5752 5750 5748 5745
5781 5775 5771 5772 5773 5773 5774 5774 5775 5775 5775 5774 5773 5773 5773 5774 5773 5773 5772 5772 5771 5771 5770 5769 5768 5767 5766 5765 5765 5764 5763 5762 5760 5759 5757 5756 5754 5753 5752 5751 5750 5746 5743
5783 5776 5772 5771 5772 5772 5773 5773 5773 5773 5773 5773 5772 5771 5771 5772 5772 5771 5771 5770 5769 5769 5768 5767 5766 5765 5765 5764 5764 5763 5762 5760 5759 5758 5757 5755 5752 5751 5750 5749 5747 5744 5742
5784 5777 5773 5771 5771 5772 5772 5771 5771 5771 5771 5771 5770 5770 5770 5770 5770 5770 5769 5768 5768 5767 5766 5766 5765 5764 5763 5763 5763 5762 5761 5760 5759 5759 5758 5755 5752 5749 5748 5747 5745 5743 5741
5784 5777 5772 5771 5771 5771 5771 5770 5770 5769 5769 5769 5769 5768 5768 5768 5768 5767 5767 5767 5766 5766 5765 5764 5764 5763 5762 5762 5762 5762 5761 5761 5760 5760 5758 5754 5751 5748 5747 5746 5744 5742 5740
5786 5779 5772 5771 5770 5770 5770 5769 5769 5768 5768 5768 5768 5767 5766 5766 5766 5766 5765 5765 5765 5765 5764 5763 5763 5762 5761 5761 5761 5761 5761 5761 5761 5760 5757 5753 5750 5747 5746 5744 5743 5741 5739
5788 5781 5774 5771 5770 5770 5769 5769 5768 5767 5767 5766 5766 5765 5765 5764 5764 5764 5764 5764 5764 5763 5763 5762 5762 5761 5761 5761 5761 5761 5762 5762 5762 5761 5757 5753 5749 5747 5745 5743 5742 5740 5739
5791 5783 5775 5772 5771 5770 5769 5768 5768 5767 5767 5766 5766 5765 5764 5764 5764 5763 5763 5763 5763 5762 5762 5762 5761 5761 5760 5761 5761 5762 5762 5763 5764 5762 5757 5752 5749 5747 5745 5743 5741 5740 5738
5793 5787 5781 5775 5772 5770 5769 5768 5767 5766 5766 5766 5765 5765 5764 5764 5763 5763 5763 5762 5762 5762 5762 5761 5761 5761 5761 5761 5762 5763 5763 5764 5764 5761 5757 5752 5749 5747 5745 5743 5741 5740 5738
5794 5790 5786 5782 5777 5774 5771 5769 5768 5767 5766 5766 5766 5765 5765 5764 5763 5763 5763 5763 5762 5762 5762 5762 5761 5761 5761 5762 5762 5763 5764 5764 5764 5761 5756 5751 5749 5747 5745 5743 5741 5740 5738
5792 5791 5789 5787 5783 5780 5777 5772 5770 5768 5767 5767 5767 5766 5765 5765 5765 5764 5763 5763 5763 5763 5762 5762 5761 5761 5761 5762 5763 5764 5765 5765 5765 5761 5756 5752 5749 5747 5745 5743 5741 5739 5738
5788 5790 5790 5788 5786 5784 5782 5776 5774 5773 5769 5769 5769 5769 5768 5767 5767 5766 5764 5764 5763 5763 5763 5763 5762 5761 5762 5764 5765 5765 5766 5768 5766 5761 5755 5752 5749 5747 5745 5743 5741 5739 5738
5790 5791 5791 5788 5786 5785 5783 5780 5778 5776 5773 5772 5772 5771 5771 5770 5769 5767 5766 5765 5765 5765 5765 5764 5764 5764 5765 5766 5767 5768 5769 5769 5767 5762 5755 5752 5750 5748 5745 5743 5741 5739 5738
5792 5791 5792 5789 5786 5784 5783 5782 5781 5779 5777 5775 5773 5773 5772 5772 5771 5770 5770 5769 5768 5768 5768 5768 5768 5769 5769 5770 5770 5770 5770 5769 5766 5761 5756 5753 5750 5748 5746 5743 5741 5740 5738
5792 5792 5791 5789 5785 5783 5782 5781 5782 5781 5780 5777 5776 5774 5773 5773 5772 5771 5771 5771 5771 5771 5770 5771 5771 5772 5771 5771 5771 5771 5769 5768 5766 5763 5757 5754 5751 5749 5746 5744 5742 5740 5738
5794 5793 5792 5789 5786 5783 5781 5780 5781 5782 5778 5778 5777 5775 5774 5773 5772 5772 5771 5772 5772 5772 5772 5772 5772 5772 5772 5771 5771 5771 5770 5768 5765 5763 5758 5754 5752 5749 5747 5745 5743 5740 5738
5798 5796 5794 5791 5789 5785 5783 5782 5783 5783 5782 5780 5777 5776 5774 5773 5772 5772 5772 5772 5772 5773 5773 5773 5773 5772 5772 5771 5770 5770 5769 5767 5765 5763 5759 5756 5752 5749 5747 5745 5743 5741 5739
5803 5798 5796 5797 5791 5787 5785 5783 5784 5784 5782 5781 5779 5777 5775 5774 5773 5772 5772 5772 5773 5773 5773 5772 5772 5771 5770 5769 5768 5768 5768 5766 5764 5762 5760 5758 5754 5751 5747 5745 5743 5741 5739
5806 5801 5797 5796 5792 5790 5788 5786 5784 5783 5782 5781 5780 5778 5777 5775 5774 5774 5773 5773 5773 5773 5773 5773 5771 5769 5767 5767 5766 5767 5766 5765 5764 5762 5760 5757 5755 5752 5748 5745 5743 5740 5739
5809 5804 5800 5797 5794 5792 5790 5787 5785 5784 5783 5782 5780 5779 5777 5776 5775 5774 5774 5774 5773 5772 5771 5771 5769 5769 5767 5766 5766 5765 5764 5764 5763 5761 5759 5757 5754 5752 5749 5746 5743 5740 5737
5811 5806 5802 5798 5796 5793 5790 5786 5783 5782 5782 5782 5782 5780 5779 5777 5776 5775 5774 5773 5773 5771 5770 5770 5768 5766 5765 5765 5760 5757 5759 5761 5760 5758 5757 5755 5753 5750 5748 5744 5741 5739 5736
5813 5809 5805 5801 5798 5795 5792 5789 5787 5785 5785 5784 5783 5781 5780 5778 5776 5776 5773 5773 5773 5771 5769 5768 5767 5764 5763 5765 5758 5751 5746 5748 5752 5754 5753 5751 5749 5747 5744 5742 5739 5737 5735
5817 5813 5810 5804 5801 5798 5795 5792 5790 5786 5784 5783 5782 5780 5780 5778 5777 5775 5774 5773 5772 5771 5768 5767 5766 5764 5760 5762 5761 5753 5744 5740 5742 5745 5747 5746 5744 5742 5740 5738 5736 5733 5731
5822 5819 5814 5808 5804 5801 5798 5793 5789 5783 5779 5781 5781 5780 5780 5778 5776 5775 5773 5772 5771 5770 5768 5767 5767 5765 5761 5757 5759 5758 5755 5750 5740 5734 5737 5739 5739 5736 5734 5733 5731 5728 5726
5829 5824 5818 5812 5807 5803 5799 5795 5790 5786 5785 5784 5783 5780 5779 5778 5776 5775 5773 5772 5770 5768 5767 5766 5765 5764 5762 5759 5756 5755 5753 5751 5748 5738 5730 5730 5730 5729 5729 5727 5725 5723 5721
5834 5828 5822 5814 5808 5805 5801 5797 5792 5788 5786 5782 5780 5778 5777 5776 5775 5774 5772 5770 5769 5767 5765 5764 5763 5762 5761 5759 5757 5755 5752 5748 5745 5741 5733 5727 5723 5723 5723 5722 5720 5718 5716